Regional Weather Roundup
Issued by NWS

Home | Current Version | Previous Version | Graphics & Text | Print | Product List | Glossary On
Versions: 1 2 3 4 5 6 7 8 9 10 11 12 13 14 15 16 17 18 19 20 21 22 23 24 25 26 27 28 29 30 31 32 33 34 35 36 37 38 39 40 41 42 43 44 45 46 47 48 49 50
000
ASUS43 KLOT 191308
RWRIL

ILLINOIS REGIONAL WEATHER ROUNDUP
NATIONAL WEATHER SERVICE CHICAGO/ROMEOVILLE IL
700 AM CST MON FEB 19 2018

NOTE: "FAIR" INDICATES FEW OR NO CLOUDS BELOW 12,000 FEET WITH NO
SIGNIFICANT WEATHER AND/OR OBSTRUCTIONS TO VISIBILITY.

* THESE STATIONS ARE NOT UNDER NWS QUALITY CONTROL. THEY ALSO MAY NOT
  REPORT WEATHER SUCH AS PRECIPITATION OR FOG.

ILZ001-002-007-009-015-016-024-191400-
NORTHWEST ILLINOIS

CITY           SKY/WX    TMP DP  RH WIND       PRES   REMARKS
MOLINE         CLOUDY    42  41  96 SE6       29.75F FOG
STERLING*      LGT RAIN  37  35  92 MISG        N/A  FOG
SAVANNA*       CLOUDY    37  35  95 SE5       29.80R WCI  33
$$

ILZ003-004-008-010-011-017-018-191400-
NORTH CENTRAL ILLINOIS

CITY           SKY/WX    TMP DP  RH WIND       PRES   REMARKS
ROCKFORD       CLOUDY    36  34  92 SE9       29.84F WCI  29
FREEPORT*      FAIR      36  35  97 SE7       29.82S WCI  31
ROCHELLE*      DRIZZLE   36  35  99 SE12      29.84S WCI  27
DE KALB*       DRIZZLE   37  36  99 SE10      29.84F WCI  29
PERU*          LGT RAIN  39  38  97 S5        29.83S
$$

ILZ005-006-012>014-019>023-191400-
NORTHEAST ILLINOIS

CITY           SKY/WX    TMP DP  RH WIND       PRES   REMARKS
CHICAGO-OHARE  LGT RAIN  39  37  92 S7        29.87F WCI  34
CHICAGO-MIDWAY CLOUDY    41  39  93 S5        29.87F
AURORA         LGT RAIN  36  36 100 CALM      29.85F VSB 1/2
LANSING*       RAIN      38  38 100 SE3       29.89S
JOLIET*        HVY RAIN  38  38 100 SE7       29.85F WCI  33
WAUKEGAN       FAIR      38  38 100 S6        29.86R FOG     WCI  33
DUPAGE AIRPORT FOG       38  38 100 SE9       29.85S VSB 1/2 WCI  31
KANKAKEE*      CLOUDY    44  43  97 S8        29.89F FOG
WHEELING       CLOUDY    40  39  97 SE5       29.87F FOG
MORRIS*        RAIN      38  37  98 SE6       29.83F WCI  33
ROMEOVILLE*    RAIN      37  37 100 E8        29.84F WCI  30
NORTHERLY ISL    N/A     40  38  93 S2          N/A
$$

LMZ740>746-191400-
SOUTHERN LAKE MICHIGAN

STATION/POSITION SKY/WX   TEMP    WIND        PRES    VSBY  WAVE
                          AIR SEA DIR/SP/G                  HT/PER
                          (F)     (DEG/KT/KT) (MB)    (MI)  (FT/S)
HARRISON CRIB              41     190/ 16/ 16   N/A
BURNHAM HARBOR             39     120/  2/ 10   N/A
CALUMET HARBOR             40     180/  6/  9 1012.0F
BURNS HARBOR               41     180/ 12/ 15 1013.2F
MICHIGAN CITY              41     160/ 13/ 17   N/A
$$

ILZ025>027-034>036-040-047-049-050-058-095>099-191400-
WEST-CENTRAL ILLINOIS

CITY           SKY/WX    TMP DP  RH WIND       PRES   REMARKS
QUINCY         CLOUDY    53  51  93 S12       29.72F
GALESBURG*     DRIZZLE   44  44 100 SE5       29.77F
MACOMB*        LGT RAIN  44  44  99 SE8       29.77F VSB 3/4
JACKSONVILLE*  LGT RAIN  53  51  94 S13G20    29.78F
PITTSFIELD*    CLOUDY    57  55  91 S14       29.77F
$$

ILZ028>032-037-038-041>044-048-051>054-059>061-191400-
CENTRAL ILLINOIS

CITY           SKY/WX    TMP DP  RH WIND       PRES   REMARKS
PONTIAC        CLOUDY    42  41  98 SE10      29.85F FOG
BLOOMINGTON    HVY RAIN  46  46 100 S14       29.84F FOG
DECATUR        TSTM      50  32  50 S13       29.85F
PEORIA         LGT RAIN  48  47  96 SE8       29.79F FOG
LACON*         CLOUDY    43  43 100 N7        29.80F FOG
LINCOLN*       CLOUDY    50  50 100 S8        29.81F
SPRINGFIELD    CLOUDY    53  53 100 S13       29.80F
TAYLORVILLE    CLOUDY    54  53  98 S18G24    29.83F
$$

ILZ033-039-045-046-055>057-062-063-191400-
EAST-CENTRAL ILLINOIS

CITY           SKY/WX    TMP DP  RH WIND       PRES   REMARKS
CHAMPAIGN      HVY RAIN  50  49  96 S17       29.86F FOG
DANVILLE*      HVY RAIN  49  49  99 S14       29.88F
RANTOUL*       CLOUDY    48  48  99 S10       29.87F
MATTOON        LGT RAIN  54  53  97 S17G29    29.87F
PARIS*         CLOUDY    51  51 100 S16       29.91F
$$

ILZ079-100>102-191400-
SOUTHWEST ILLINOIS

CITY           SKY/WX    TMP DP  RH WIND       PRES   REMARKS
ALTON          RAIN      57  55  94 S17G29    29.83F
BELLEVILLE     CLOUDY    57  55  92 S16       29.85F
CAHOKIA*       FAIR      59  55  87 S16G30    29.83F
SPARTA*        LGT RAIN  55  55 100 S17G25    29.93F
$$

ILZ064>066-069>071-074>076-080>082-084>086-088>090-092>094-191400-
SOUTH-CENTRAL ILLINOIS

CITY           SKY/WX    TMP DP  RH WIND       PRES   REMARKS
CARBONDALE     LGT RAIN  60  58  92 S23G36    29.96F
CAIRO*         CLOUDY    57  56  95 S13       30.04S
EFFINGHAM*     DRIZZLE   58  58 100 S18G26    29.91F
MARION         CLOUDY    59  57  94 S17G26    29.99S
MT. VERNON     LGT RAIN  59  57  93 S20G28    29.94F
CENTRALIA*     CLOUDY    60  58  95 S26       29.92S
SALEM*         CLOUDY    60  57  89 S18G28    29.91F
METROPOLIS*    CLOUDY    60  57  87 S13G20    30.05R
$$

ILZ067-068-072-073-078-083-087-091-191400-
SOUTHEAST ILLINOIS

CITY           SKY/WX    TMP DP  RH WIND       PRES   REMARKS
LAWRENCEVILLE  CLOUDY    57  55  93 S21       29.98S
FLORA*         CLOUDY    59  57  92 S17       29.95F
FAIRFIELD*     LGT RAIN  58  57  97 S9        29.96F
HARRISBURG*    CLOUDY    61  58  91 S16G23    30.00S
ROBINSON*      CLOUDY    56  55  97 SW16      29.96S
CARMI*         CLOUDY    58  56  93 S21G26    30.00S
$$

ABBREVIATIONS USED IN REMARKS
   TC - TEMPERATURE IN CELSIUS
  WCI - WIND CHILL INDEX
   HX - HEAT INDEX
  VSB - VISIBILITY
$$





USA.gov is the U.S. government's official web portal to all federal, state and local government web resources and services.